Simultaneous Nadir Overpasses (SNOs) Predictions

Prediction of SNOs between GOES-17 and METOP-B Satellite Orbit:

Table of predicted SNOs for the next 14.0 days since TLE Epoch: 1/13/2024
Index Date Time (GOES-17) GOES-17 Lat,Lon METOP-B Lat,Lon Distance(km) Time Diff (sec)
1 01/13/2024 04:39:18 0.00,-104.66 -0.69,-107.81 358.57 80
2 01/14/2024 04:16:00 -0.00,-104.66 0.39,-102.82 208.98 80
3 01/15/2024 16:34:56 0.00,-104.67 0.62,-107.41 312.10 80
4 01/16/2024 16:16:59 0.00,-104.68 -0.52,-102.44 255.94 80
5 01/18/2024 04:36:03 -0.00,-104.67 -0.55,-107.05 270.97 80
6 01/19/2024 04:12:46 -0.00,-104.67 0.60,-102.07 296.81 80
7 01/20/2024 16:31:40 -0.00,-104.68 0.46,-106.65 224.52 80
8 01/21/2024 16:13:43 0.00,-104.68 -0.64,-101.66 343.48 80
9 01/23/2024 04:32:47 0.00,-104.68 -0.36,-106.29 183.26 80
10 01/24/2024 04:09:30 -0.01,-104.68 0.74,-101.30 384.60 80
11 01/25/2024 16:28:24 0.00,-104.69 0.30,-105.88 136.70 80
12 01/26/2024 16:10:27 0.01,-104.69 -0.81,-100.90 431.73 80
